Home > Weather > Nome > Past weeks

Flag for USA Past Weather in Nome, Alaska, USA — Yesterday and Last 2 Weeks

Now
62 °F

Passing clouds.


Feels Like: 62 °F
Forecast: 49 / 60 °F
Wind: 9 mph from West

Location: Nome Airport

Current Time: Aug 29, 2016 at 5:35:58 PM

Latest Report: Aug 29, 2016 at 4:53 PM


Visibility: 10 mi

Pressure: 30.27 "Hg

Humidity: 67%

Dew Point: 51 °F

Location of NomeLocation

Past Weather in Nome — Graph

°F

Nome Temperature Yesterday

Maximum temperature yesterday: 58 °F (at 8:53 PM)
Minimum temperature yesterday: 49 °F (at 5:53 AM)
Average temperature yesterday: 53 °F

High & Low Weather Summary for the Past Weeks

 TemperatureHumidityPressure
High67 °F (Aug 14, 6:53 PM)100% (Aug 17, 1:53 AM)30.37 "Hg (Aug 17, 1:53 AM)
Low35 °F (Aug 25, 5:53 AM)45% (Aug 14, 6:53 PM)29.31 "Hg (Aug 21, 3:53 PM)
Average52 °F86%29.95 "Hg
* Reported Aug 14 3:53 PM — Aug 29 3:53 PM, Nome, Weather by CustomWeather, © 2016

Note: Actual official high and low records may vary slightly from our data, if they occured in-between our weather recording intervals... More about our weather records

Advertising

Nome Weather History for the Previous 24 Hours

Scroll right to see more
 ConditionsComfort  
Time TempWeatherWind HumidityBarometerVisibility
3:53 PM
Mon, Aug 29
61 °FPassing clouds.9 mph70%30.28 "Hg10 mi
2:53 PM61 °FScattered clouds.8 mph67%30.29 "Hg10 mi
1:53 PM60 °FScattered clouds.7 mph69%30.29 "Hg10 mi
12:53 PM59 °FPartly sunny.7 mph72%30.31 "Hg10 mi
11:53 AM59 °FOvercast.8 mph72%30.31 "Hg10 mi
10:53 AM57 °FMostly cloudy.6 mph78%30.31 "Hg10 mi
9:53 AM55 °FBroken clouds.6 mph83%30.31 "Hg10 mi
8:53 AM52 °FBroken clouds.6 mph89%30.31 "Hg10 mi
7:53 AM51 °FPassing clouds.7 mph89%30.32 "Hg10 mi
7:00 AM52 °FPassing clouds.7 mph89%30.32 "Hg10 mi
5:53 AM51 °FOvercast.5 mph89%30.32 "Hg10 mi
4:53 AM50 °FPassing clouds.5 mph96%30.33 "Hg10 mi
3:53 AM53 °FPassing clouds.No wind86%30.33 "Hg10 mi
2:53 AM53 °FOvercast.5 mph86%30.34 "Hg10 mi
1:53 AM52 °FPartly cloudy.8 mph89%30.34 "Hg10 mi
12:53 AM53 °FPartly cloudy.No wind93%30.34 "Hg10 mi
11:53 PM
Sun, Aug 28
55 °FClear.No wind93%30.34 "Hg10 mi
10:53 PM56 °FPartly sunny.No wind90%30.33 "Hg10 mi
9:53 PM57 °FPartly sunny.3 mph83%30.33 "Hg10 mi
8:53 PM58 °FBroken clouds.No wind81%30.34 "Hg10 mi
7:53 PM57 °FBroken clouds.3 mph90%30.34 "Hg10 mi
6:53 PM56 °FBroken clouds.9 mph90%30.35 "Hg10 mi
5:53 PM55 °FPartly sunny.9 mph90%30.35 "Hg10 mi
Weather by CustomWeather, © 2016

See weather overviewHow to use our weather pages